Showing default

FALCONSAT-10, 58291

Orbit data source: Space-Track

FALCONSAT-10, 58291 is a payload satellite owned by USAF Academy (US) in SSO that was launched on Sat, 11 Nov 2023 UTC via an FALCON 9 launch vehicle from the Air Force Western Test Range (AFWTR). Payloads include a variety of satellites, spacecraft, and rockets equipped with specific instruments for various scientific and technological missions. These include communications satellites like Starlink; space stations such as the ISS; scientific satellites like the Hubble; Earth observation satellites from companies like Planet Labs, Umbra, and HawkEye 360; GPS; miniature CubeSats for education and research; and military/defense satellites.

Loading next visibility...
FALCONSAT-10 details
Identifier
58291, 2023-174AM
Orbit
SSO
Last TLE update23 hours ago
Origin
Flag of USUSAF Academy (US)
ManufacturerUSAF Academy
MissionOperational Defense Technology
Bus & MotorFALCONSAT, Unknown motor
Mass140 kg wet, 140 kg dry
Launch date (UTC)
2023-11-11 (1 year ago)
Launch vehicle
FALCON 9
Launch site
Air Force Western Test Range (AFWTR)
Object type
Payload
Rocket body
Debris
Shape & HBRBox, 1 m
Radar Cross Section0.780 m², Medium (>0.1 m² and < 1m²)

Expand to show TLE details & history

TLE from 23 hours ago
0 FALCONSAT-10
1 58291U 23174AM  24355.73304520  .00007336  00000-0  34117-3 0  9993
2 58291  97.4394  67.0712 0008570 304.1619  55.8803 15.20226581 61985
Epoch: 2024-12-20T17:35Z
Definitive object data (Epoch: 2024-12-20T17:35:35.105Z)
Latitude-0.00001°
Longitude73.38061°
Altitude504.94 km
Speed7.614 km/s
True Right ascension04h 28m 17s
True Declination0° 00' 00"
Sunlit
Object was in full shadow at TLE epoch
Visualization TLE readout
Latitude68.57346°
Longitude-86.36656°
Altitude522.793 km
Speed7.605 km/s
Apparent Right ascension01h 20m 18s
Apparent Declination34° 58' 48"
Sunlit
Object is in daylight
Visualization observer readout
Local Sidereal Time15:13:58
Azimuth23.373° NE
Elevation-10.653°
Doppler factor1
Orbital elements
Apogee altitude508.02 km
Perigee altitude496.227 km
Semi-major axis6,880.261 km
Eccentricity0.000857
Inclination97.4394°
RAAN67.0712°
Arg. of periapsis304.1619°
True anomaly55.96165°
Mean anomaly55.8803°
Eccentric anomaly55.92097°
Mean motion3.80308 °/min
BSTAR0.00034117
Orbital period94.66 mins
Loading maneuver chart data...
Loading historical data...
Loading historical data...
Loading historical data...
Loading historical data...
Loading historical data...
Loading historical data...
Loading historical data...

FALCONSAT-10 Visibility forecast

Observer location: undefined°, undefined

Span
Click to sort rows by Start time (UTC) header in descending order
Start Az.
Max El. time (UTC)
Max El. Az.
Max El.
End time (UTC)
End Az.
7 mins2024-12-21 17:50:33.189Z12.236° NNE2024-12-21 17:54:33.189Z189.355° SSW42.807°2024-12-21 17:57:33.189Z192.557° SSW
5 mins2024-12-22 04:29:33.189Z126.921° SE2024-12-22 04:31:33.189Z81.472° E27.946°2024-12-22 04:34:33.189Z12.535° NNE
|